This demonstration page uses our WeatherBlox Daily Observations layout. Learn more.

38.89511, -77.03637

Hourly Observations for July 10, 2017

Temp ( °F °C ) Dew Point ( °F °C ) Humidity (%) Winds ( mph kmh ) Pressure ( in mb ) Visibility ( mi km ) Precip ( " mm )
12:52 am 00:52 Mostly Cloudy 76 24.4 65 18.3 69 69 S 6 9 30.06 1018 10 16.09344 0 0
1:52 am 01:52 Mostly Cloudy 75 23.9 65 18.3 71 71 SSE 5 7 30.06 1018 10 16.09344 0 0
2:52 am 02:52 Mostly Cloudy 75 23.9 65 18.3 71 71 SE 3 6 30.06 1018 10 16.09344 0 0
3:52 am 03:52 Mostly Cloudy 74 23.3 65 18.3 74 74 SE 3 6 30.06 1018 10 16.09344 0 0
4:52 am 04:52 Partly Cloudy 73 22.8 66 18.9 79 79 SE 5 7 30.03 1017 10 16.09344 0 0
5:52 am 05:52 Partly Cloudy 73 22.8 67 19.4 81 81 S 7 11 30.03 1017 10 16.09344 0 0
6:35 am 06:35 Mostly Cloudy 73 22.8 68 20 84 84 SSE 6 9 30.06 1018 10 16.09344 0 0
6:52 am 06:52 Mostly Cloudy 74 23.3 68 20 82 82 S 6 9 30.03 1017 10 16.09344 0 0
7:52 am 07:52 Cloudy 75 23.9 68 20 79 79 SSW 5 7 30.03 1017 10 16.09344 0 0
8:44 am 08:44 Mostly Cloudy 76 24.4 68 20 77 77 SSW 7 11 30.06 1018 10 16.09344 0 0
8:47 am 08:47 Mostly Cloudy 77 25 70 21 79 79 SSW 7 11 30.06 1018 10 16.09344 0 0
8:52 am 08:52 Mostly Cloudy 77 25 69 20.6 77 77 SSW 5 7 30.06 1018 10 16.09344 0 0
9:52 am 09:52 Mostly Cloudy 79 26.1 71 21.7 77 77 S 8 13 30.06 1018 10 16.09344 0 0
10:52 am 10:52 Partly Cloudy 81 27.2 72 22.2 74 74 S 10 17 30.06 1018 10 16.09344 0 0
11:52 am 11:52 Partly Cloudy 84 28.9 71 21.7 65 65 S 10 17 30.06 1018 10 16.09344 0 0
12:52 pm 12:52 Partly Cloudy 87 30.6 69 20.6 55 55 S 12 19 30.03 1017 10 16.09344 0 0
1:52 pm 13:52 Partly Cloudy 88 31.1 70 21.1 55 55 SSW 15 24 30 1016 10 16.09344 0 0
2:52 pm 14:52 Partly Cloudy 87 30.6 67 19.4 51 51 SSW 12 19 30 1016 10 16.09344 0 0
3:52 pm 15:52 Mostly Cloudy 90 32.2 69 20.6 50 50 S 13 20 29.97 1015 10 16.09344 0 0
4:52 pm 16:52 Mostly Cloudy 88 31.1 72 22.2 59 59 S 13 20 29.97 1015 10 16.09344 0 0
5:52 pm 17:52 Mostly Cloudy 88 31.1 71 21.7 57 57 S 14 22 29.94 1014 10 16.09344 0 0
6:52 pm 18:52 Partly Cloudy 87 30.6 71 21.7 59 59 S 10 17 29.94 1014 10 16.09344 0 0
7:52 pm 19:52 Partly Cloudy 86 30 71 21.7 61 61 S 9 15 29.94 1014 10 16.09344 0 0
8:52 pm 20:52 Mostly Cloudy 84 28.9 72 22.2 67 67 S 7 11 29.94 1014 10 16.09344 0 0
9:52 pm 21:52 Mostly Cloudy 83 28.3 71 21.7 67 67 S 9 15 29.97 1015 10 16.09344 0 0
10:52 pm 22:52 Partly Cloudy 82 27.8 72 22.2 72 72 S 12 19 29.97 1015 10 16.09344 0 0
11:52 pm 23:52 Mostly Cloudy 82 27.8 71 21.7 69 69 SSW 12 19 29.94 1014 10 16.09344 0 0

Powered by AerisWeather